EHI
0 0 0 0 0 0 0 0 0 0 0 0 0 0 0 0 0 0 0 0 0 0 0 0 0 0 0 0 0 0 0 0 0 0 0 0 0 0
0 0 0 0 0 0 0 0 0 0 0 0 0 0 0 0 0 0 0 0 0 0 0 0 0 0 0 0 0 0 0 0 0 0 0 0 0 0
0 0 0 0 0 0 0 0 0 0 0 0 0 0 0 0 0 0 0 0 0 0 0 0 0 0 0 0 0 0 0 0 0 0 0 0 0 0
0 0 0 0 0 0 0 0 0 0 0 0 0 0 0 0 0 0 0 0 0 0 0 0 0 0 0 0 0 0 0 0 0 0 0 0 0 0
0 0 0 0 0 0 0 0 0 0 0 0 0 0 0 0 0 0 0 0 0 0 0 0 0 0 0 0 0 0 0 0 0 0 0 0 0 0
0 0 0 0 0 0 0 0 0 0 0 0 0 0 0 0 0 0 0 0 0 0 0 0 0 0 0 0 0 0 0 0 0 0 0 0 0 0
0 0 0 0 0 0 0 0 0 0 0 0 0 0 0 0 0 0 0 0 0 0 0 0 0 0 0 0 0 0 0 0 0 0 0 0 0 0
0 0 0 0 0 0 0 0 0 0 0 0 0 0 0 0 0 0 0 0 0 0 0 0 0 0 0 0 0 0 0 0 0 0 0 0 0 0
0 0 0 0 0 0 0 0 0 0 0 0 0 0 0 0 0 0 0 0 0 0 0 0 0 0 0 0 0 0 0 0 0 0 0 0 0 0
0 0 0 0 0 0 0 0 0 0 0 0 0 0 0 0 0 0 0 0 0 0 0 0 0 0 0 0 0 0 0 0 0 0 0 0 0 0
0 0 0 0 0 0 0 0 0 0 0 0 0 0 0 0 0 0 0 0 0 0 0 0 0 0 0 0 0 0 0 0 0 0 0 0 0 0
0 0 0 0 0 0 0 0 0 0 0 0 0 0 0 0 0 0 0 0 0 0 0 0 0 0 0 0 0 0 0 0 0 0 0 0 0 0
0 0 0 0 0 0 0 0 0 0 0 0 0 0 0 0 0 0 0 0 0 0 0 0 0 0 0 0 0 0 0 0 0 0 0 0 0 0
0 0 0 0 0 0 0 0 0 0 0 0 0 0 0 0 0 0 0 0 0 0 0 0 0 0 0 0 0 0 0 0 0 0 0 0 0 0
0 0 0 0 0 0 0 0 0 0 0 0 0 0 0 0 0 0 0 0 0 0 0 0 0 0 0 0 0 0 0 0 0 0 0 0 0 0
0 0 0 0 0 0 0 0 0 0 0 0 0 0 0 0 0 0 0 0 0 0 0 0 0 0 0 0 0 0 0 0 0 0 0 0 0 0
0 0 0 0 0 0 0 0 0 0 0 0 0 0 0 0 0 0 0 0 0 0 0 0 0 0 0 0 0 0 0 0 0 0 0 0 0 0
0 0 0 0 0 0 0 0 0 0 0 0 0 0 0 0 0 0 0 0 0 0 0 0 0 0 0 0 0 0 0 0 0 0 0 0 0 0
0 0 0 0 0 0 0 0 0 0 0 0 0 0 0 0 0 0 0 0 0 0 0 0 0 0 0 0 0 0 0 0 0 0 0 0 0 0
0 0 0 0 0 0 0 0 0 0 0 0 0 0 0 0 0 0 0 0 0 0 0 0 0 0 0 0 0 0 0 0 0 0 0 0 0 0
0 0 0 0 0 0 0 0 0 0 0 0 0 0 0 0 0 0 0 0 0 0 0 0 0 0 0 0 0 0 0 0 0 0 0 0 0 0
0 0 0 0 0 0 0 0 0 0 0 0 0 0 0 0 0 0 0 0 0 0 0 0 0 0 0 0 0 0 0 0 0 0 0 0 0 0
0 0 0 0 0 0 0 0 0 0 0 0 0 0 0 0 0 0 0 0 0 0 0 0 0 0 0 0 0 0 0 0 0 0 0 0 0 0
Wind_Speed
11 12 10 8 7 7 7 7 7 8 8 8 6 8 7 7 8 8 8 10 10 10 9 8 7 6 5 4 3 2 1 2 2 2 2 2 3 3
9 12 11 9 8 7 7 7 7 8 8 6 6 6 7 6 9 9 8 10 11 11 10 9 8 7 6 5 4 3 2 3 2 2 3 2 2 2
11 12 13 11 8 7 7 7 8 7 8 5 3 4 7 8 7 7 7 8 7 11 11 10 9 8 8 7 5 4 3 3 3 3 3 3 2 3
12 12 12 10 11 9 8 9 8 8 7 7 4 4 6 8 8 8 6 6 6 10 12 11 10 10 9 8 7 5 4 3 3 2 3 3 2 2
11 12 12 12 13 10 10 10 8 7 7 7 5 4 4 5 6 6 6 5 5 7 11 11 11 11 10 9 8 6 5 4 3 2 2 2 2 2
9 10 11 12 13 12 11 11 9 9 8 7 5 5 4 5 6 6 6 6 5 5 7 8 9 11 10 10 8 7 5 4 4 3 2 2 1 1
8 9 9 10 12 11 9 9 9 9 7 7 6 5 5 6 8 6 6 5 5 5 5 5 6 6 7 9 9 8 6 5 5 4 3 2 1 1
7 7 7 8 10 11 11 11 12 11 10 8 7 8 9 9 7 7 6 5 5 6 6 5 5 5 5 5 8 9 8 7 6 5 4 3 3 3
6 6 5 6 8 8 9 10 11 13 13 10 10 10 10 10 10 10 9 8 5 6 6 5 5 5 5 5 9 10 9 7 7 6 6 5 4 4
6 6 6 7 6 7 7 8 9 9 10 9 9 9 8 8 11 10 9 5 2 3 5 4 4 4 4 5 9 10 9 8 7 7 7 7 7 6
6 6 6 6 7 7 7 7 7 6 6 7 7 6 7 9 9 7 7 7 4 4 4 3 3 2 3 4 5 8 9 9 8 7 7 8 8 7
5 5 6 7 7 6 7 7 7 6 4 3 3 4 5 8 11 10 9 8 5 4 5 5 4 4 3 2 3 4 6 8 8 8 8 8 8 5
4 4 4 7 7 7 7 6 7 5 4 4 3 3 3 4 5 4 5 6 6 4 7 6 4 4 4 3 3 3 4 4 5 6 7 8 8 6
4 4 3 5 6 6 5 4 4 3 3 3 3 3 3 3 3 3 3 3 2 3 8 7 4 5 5 4 3 4 3 3 3 4 3 6 6 6
4 5 4 3 3 3 3 2 2 3 3 3 3 3 2 3 3 4 5 6 7 5 4 3 4 5 4 4 5 4 4 3 3 4 4 3 3 4
4 4 3 2 2 2 1 1 1 2 3 3 3 2 3 3 3 3 4 5 5 4 5 4 3 5 4 4 4 5 4 4 5 4 3 3 3 3
4 3 2 2 2 1 1 1 0 1 1 1 2 3 3 3 3 3 3 3 3 4 4 4 5 5 4 3 4 5 5 4 4 5 4 3 3 4
3 2 2 2 2 2 1 1 1 1 1 2 2 3 4 4 4 3 3 4 4 5 5 5 5 4 3 2 1 4 4 3 4 4 4 4 4 4
2 2 2 2 2 2 2 2 2 1 1 1 2 3 3 4 4 4 4 4 4 5 5 5 5 5 5 4 2 3 4 4 5 4 4 3 3 3
2 2 2 2 2 2 2 2 1 1 1 1 1 2 3 3 4 4 4 5 5 4 4 4 4 4 4 4 4 3 4 5 5 5 4 3 1 1
3 3 3 2 2 2 2 2 1 1 1 1 1 2 2 3 3 3 4 6 5 4 5 4 3 5 4 4 4 3 3 3 2 3 4 4 3 3
4 4 3 3 2 2 2 2 1 1 1 1 1 2 2 3 4 4 4 5 4 4 4 4 5 4 3 4 4 5 4 4 3 3 1 2 2 3
4 4 4 3 3 2 2 2 2 2 2 2 2 2 3 3 3 3 4 4 4 5 5 5 4 3 3 4 5 5 6 5 4 3 2 3 4 2
Wind_Direction
227 229 229 227 222 222 221 220 224 235 234 223 213 213 212 210 197 207 213 203 207 213 216 214 211 211 220 231 229 226 253 266 257 258 266 283 304 313
228 230 229 228 225 220 220 225 228 237 247 226 217 208 204 209 203 209 213 197 202 206 207 205 205 204 202 203 198 201 231 255 259 263 260 263 278 295
228 231 232 229 228 223 220 223 226 228 242 244 233 214 205 205 204 210 208 204 202 202 204 204 204 201 200 196 194 201 222 247 258 260 260 267 268 270
230 230 232 227 228 226 222 225 227 227 233 238 226 213 218 209 204 205 207 210 205 198 200 202 203 202 199 193 191 197 211 232 247 259 259 266 266 260
234 232 232 230 228 226 225 226 226 228 229 230 226 217 214 202 203 208 205 207 210 200 198 201 202 200 197 193 192 196 202 216 223 229 244 260 266 270
240 239 234 233 233 228 226 226 224 224 223 220 219 211 206 199 197 199 203 204 205 201 201 201 200 197 196 196 193 193 198 206 211 211 220 226 238 263
243 243 241 237 238 233 229 226 223 223 221 222 220 212 205 196 201 197 204 194 206 199 194 196 193 197 195 196 192 190 197 205 208 206 207 199 181 151
250 248 249 240 239 238 234 231 227 223 220 222 223 220 217 210 200 195 188 188 209 194 191 198 194 200 198 198 191 189 196 203 201 193 182 172 154 135
252 248 249 249 243 237 234 233 232 233 229 224 226 225 217 207 196 197 200 200 204 176 180 195 194 205 196 194 192 192 193 196 192 184 176 171 162 147
264 255 251 250 250 240 236 235 235 234 233 230 230 226 218 206 198 198 196 177 99 163 181 189 187 195 184 187 190 191 188 188 186 181 176 170 161 149
275 264 258 254 259 243 232 233 237 241 239 241 244 231 208 199 191 175 171 174 187 189 193 176 163 158 173 184 184 187 187 184 181 176 170 164 156 148
289 278 267 267 266 249 234 230 233 237 230 230 227 212 199 192 190 193 184 183 171 175 179 166 152 147 163 174 181 188 186 182 179 173 168 163 161 161
289 284 281 281 269 253 249 238 236 230 214 207 205 201 189 185 190 194 189 184 175 174 167 160 154 157 154 149 170 184 182 175 173 170 170 171 172 173
290 285 288 292 281 265 257 250 217 195 191 184 185 196 186 179 168 153 135 122 115 153 160 154 151 160 148 146 159 163 169 170 171 169 169 170 173 174
290 297 299 298 288 270 258 245 195 184 181 186 190 196 179 154 139 121 104 96 82 77 102 125 143 146 144 148 148 153 156 171 176 170 167 172 176 175
296 295 291 278 274 285 255 215 227 219 201 194 182 160 139 137 146 138 133 130 111 87 68 78 109 131 132 133 144 154 155 161 169 170 166 171 179 186
306 305 320 327 320 311 302 294 273 233 206 170 160 153 145 141 142 137 136 140 141 143 133 106 92 84 83 123 147 157 155 154 164 162 165 176 190 194
303 290 297 300 293 290 284 286 277 252 227 180 169 163 157 155 149 146 147 151 150 150 148 145 137 121 103 52 86 160 161 160 158 164 172 180 194 192
296 300 293 290 286 279 278 278 281 284 268 195 171 161 157 157 157 158 157 156 155 153 154 155 162 159 161 167 155 187 171 160 158 164 179 189 194 187
311 306 301 296 292 285 281 286 287 282 266 228 174 157 156 158 161 165 165 164 160 154 152 159 173 181 181 159 143 152 181 167 163 165 165 166 168 143
315 308 304 297 295 289 280 270 260 245 244 230 191 170 165 162 165 167 163 161 161 161 165 171 166 141 110 109 119 132 147 170 159 158 156 159 168 180
310 306 303 300 292 284 275 260 247 243 228 212 193 176 173 171 169 168 167 167 169 163 154 141 137 144 154 162 154 145 141 139 147 152 182 198 179 185
310 307 305 301 295 287 273 260 249 234 217 203 192 188 183 178 173 168 166 166 161 156 150 146 147 149 152 155 153 148 147 150 151 156 177 209 222 240